[[{"header":{"parameterUnit":"m.s-1","parameterCategory":1,"la1":30.2991,"la2":30.254,"lo1":-89.0895,"lo2":-89.0444,"dy":0.0017,"dx":0.0017,"nx":28,"ny":28,"refTime":"2023-09-04T21:00:00:Z","depth":0,"parameterNumber":2,"parameterNumberName":"U-component_of_WINDS"},"data":[0,0,0,0,0,0,0,0,0,0,0,0,0,0,0,0,0,0,0,0,0,0,0,0,0,0,0,0,0,0,0,0,0,0,0,0,0,0,0,0,0,0,0,0,0,0,0,0,0,0,0,0,0,0,0,0,0,0,-3.3681,-3.3682,0,-3.378,-3.3781,-3.3783,-3.3752,-3.375,-3.3748,-3.3746,-3.3846,-3.385,-3.3855,0,0,0,0,0,0,0,0,0,0,0,0,0,-3.3463,-3.3467,-3.3681,-3.3682,-3.3683,-3.378,-3.3782,-3.3783,-3.3753,-3.375,-3.3748,-3.3745,-3.3844,-3.385,-3.3855,0,0,0,0,0,0,0,0,0,0,0,0,0,-3.3559,-3.3468,-3.3681,-3.368,-3.3681,-3.378,-3.3782,-3.3783,-3.3753,-3.375,-3.3747,-3.3744,-3.3842,-3.3849,-3.3856,-3.3961,0,0,-3.3877,-3.388,0,0,0,0,0,0,0,0,-3.3554,-3.3567,-3.3679,-3.368,-3.3682,-3.3751,-3.3741,-3.3843,-3.3754,-3.3726,-3.3746,-3.3743,-3.3817,-3.3825,-3.3851,-3.3965,-3.397,-3.3878,-3.3882,-3.3885,-3.3887,0,0,0,0,0,0,0,-3.3547,-3.3563,-3.372,-3.3681,-3.3682,-3.3674,-3.3684,-3.376,-3.3787,-3.3728,-3.3726,-3.3738,-3.3817,-3.3844,-3.3853,-3.3971,-3.3877,-3.3883,-3.3888,-3.389,-3.4174,-3.4178,0,0,0,0,0,0,-3.354,-3.3557,-3.3717,-3.3723,-3.3609,-3.3681,-3.3692,-3.3732,-3.3786,-3.3792,-3.3741,-3.3737,-3.3834,-3.3845,-3.3856,-3.398,-3.3885,-3.3891,-3.3895,-3.4171,-3.4175,-3.4179,0,0,0,0,0,0,-3.3535,-3.3554,-3.3713,-3.364,-3.3659,-3.3688,-3.3732,-3.3735,-3.3763,-3.3796,-3.3801,-3.3764,-3.3832,-3.3847,-3.3935,-3.3983,-3.3894,-3.39,-3.4167,-3.4172,-3.4177,-3.423,0,0,0,0,0,0,-3.3529,-3.3553,-3.3594,-3.3641,-3.3664,-3.3791,-3.3736,-3.374,-3.3775,-3.377,-3.3819,-3.3824,-3.3831,-3.3924,-3.3941,-3.3991,-3.3906,-3.4163,-3.4169,-3.4175,-3.4224,-3.4237,-3.4247,0,0,0,0,0,-3.3522,-3.3605,-3.3596,-3.3615,-3.3715,-3.3793,-3.3806,-3.3812,-3.3779,-3.3819,-3.3841,-3.3823,-3.3976,-3.3934,-3.3953,-3.4005,-3.4159,-3.4167,-3.4175,-3.4219,-3.4234,-3.4247,0,0,0,0,0,0,-3.3562,-3.3611,-3.3602,-3.3703,-3.3744,-3.3788,-3.3839,-3.3828,-3.388,-3.3873,-3.3878,-3.3889,-3.3979,-3.4001,-3.3953,-3.4108,-3.4063,-3.4074,-3.409,-3.4104,-3.4116,-3.4107,-3.3911,0,0,0,0,0,-3.3583,-3.3643,-3.3683,-3.3768,-3.3789,-3.3811,-3.3845,-3.3847,-3.3889,-3.3906,-3.3934,-3.3976,-3.4033,-3.4071,-3.4125,-3.4229,-3.4237,-3.4274,-3.4285,-3.4295,-3.4304,-3.4357,-3.4373,-3.4204,-3.4204,-3.4204,0,0,-3.3626,-3.366,-3.3698,-3.3777,-3.3809,-3.387,-3.3826,-3.3893,-3.3937,-3.3916,-3.4,-3.4023,-3.4069,-3.4165,-3.4208,-3.4186,-3.4353,-3.4304,-3.4312,-3.4316,-3.4367,-3.4383,-3.4397,-3.4209,-3.4208,-3.4207,0,0,-3.3735,-3.3768,-3.3842,-3.3875,-3.3925,-3.3938,-3.3956,-3.4002,-3.4016,-3.4101,-3.4086,-3.4139,-3.4239,-3.4272,-3.4301,-3.4423,-3.4408,-3.4441,-3.45,-3.4552,-3.4566,-3.4577,-3.4618,-3.4633,-3.4451,-3.4451,-3.4451,0,-3.3782,-3.3874,-3.3881,-3.3949,-3.3983,-3.3968,-3.4041,-3.4073,-3.4138,-3.4161,-3.4137,-3.426,-3.429,-3.4392,-3.4422,-3.4448,-3.4466,-3.4434,-3.4563,-3.4575,-3.4586,-3.4625,-3.4641,-3.4455,-3.4454,-3.4454,-3.4454,0,-3.3928,-3.3992,-3.4045,-3.4108,-3.4149,-3.422,-3.4236,-3.4276,-3.4275,-3.4291,-3.4376,-3.4413,-3.4474,-3.4499,-3.4498,-3.46,-3.4585,-3.4562,-3.4515,-3.4606,-3.4642,-3.4657,-3.446,-3.4458,-3.4457,-3.4457,0,0,-3.4063,-3.4129,-3.4148,-3.4176,-3.4229,-3.4278,-3.4348,-3.4408,-3.4441,-3.4487,-3.4544,-3.4628,-3.4607,-3.4641,-3.4644,-3.469,-3.4781,-3.4661,-3.4663,-3.468,-3.4893,-3.4908,-3.4925,-3.4773,-3.4776,-3.4778,-3.4888,0,-3.4174,-3.4296,-3.4305,-3.4415,-3.4472,-3.4459,-3.4519,-3.4558,-3.4576,-3.4627,-3.4646,-3.4704,-3.4674,-3.4694,-3.4739,-3.476,-3.4824,-3.4753,-3.4823,-3.4826,-3.4808,-3.4944,-3.496,-3.5063,-3.4903,-3.4905,-3.4907,0,-3.432,-3.437,-3.4485,-3.4529,-3.4554,-3.4608,-3.4662,-3.4712,-3.4756,-3.4765,-3.4803,-3.4799,-3.4869,-3.4823,-3.4918,-3.487,-3.49,-3.4914,-3.4919,-3.4923,-3.4869,-3.4949,-3.5096,-3.511,-3.493,-3.4928,-3.4927,0,-3.4403,-3.4499,-3.458,-3.4605,-3.4659,-3.4697,-3.4721,-3.4761,-3.4796,-3.4845,-3.4867,-3.4923,-3.4953,-3.4996,-3.5007,-3.4972,-3.5101,-3.5056,-3.5109,-3.5108,-3.5133,-3.5131,-3.5284,-3.5158,-3.5158,-3.5158,-3.5157,0,-3.4525,-3.4595,-3.4618,-3.4667,-3.4745,-3.4755,-3.4831,-3.4853,-3.4889,-3.4942,-3.4935,-3.4984,-3.4997,-3.5049,-3.5058,-3.5134,-3.5149,-3.5157,-3.5157,-3.5155,-3.5154,-3.5172,-3.5164,-3.5162,-3.5161,-3.516,-3.5159,0,-3.463,-3.4648,-3.4735,-3.4779,-3.4792,-3.4847,-3.4885,-3.4932,-3.4948,-3.5015,-3.5031,-3.5057,-3.5117,-3.5133,-3.5206,-3.5212,-3.53,-3.5296,-3.5285,-3.5284,-3.5335,-3.5328,-3.5502,-3.5524,-3.5387,-3.5388,-3.5389,0,-3.4704,-3.4758,-3.4808,-3.4843,-3.4869,-3.4925,-3.4961,-3.4972,-3.5009,-3.5062,-3.5102,-3.5162,-3.521,-3.5307,-3.5331,-3.5386,-3.5382,-3.5439,-3.539,-3.5385,-3.5379,-3.5374,-3.5378,-3.5447,-3.5448,-3.5449,-3.545,0,-3.4834,-3.484,-3.4892,-3.4947,-3.499,-3.5034,-3.5076,-3.5105,-3.5122,-3.5164,-3.5225,-3.5263,-3.5336,-3.5394,-3.545,-3.5474,-3.5464,-3.5466,-3.548,-3.5477,-3.5467,-3.547,-3.5307,-3.5461,-3.546,-3.5459,-3.5459,-3.5458,-3.4924,-3.497,-3.5012,-3.507,-3.5103,-3.5142,-3.5187,-3.521,-3.5262,-3.5322,-3.5326,-3.5392,-3.5433,-3.5507,-3.5534,-3.5585,-3.5568,-3.559,-3.5595,-3.5599,-3.5602,-3.5462,-3.5596,-3.5596,-3.5595,-3.5595,-3.5595,0,-3.5051,-3.5077,-3.513,-3.5189,-3.5234,-3.5222,-3.5268,-3.5306,-3.5364,-3.5404,-3.5451,-3.5521,-3.5578,-3.5607,-3.5663,-3.5698,-3.5695,-3.5712,-3.5708,-3.5714,-3.5616,-3.5596,-3.5714,-3.5714,-3.5714,-3.5714,-3.5714,-3.5714,-3.5122,-3.5199,-3.521,-3.5302,-3.5328,-3.5393,-3.542,-3.5455,-3.5486,-3.5565,-3.5612,-3.5631,-3.5666,-3.5725,-3.5775,-3.5783,-3.5802,-3.5821,-3.5826,-3.5733,-3.5721,-3.5709,-3.569,-3.5826,-3.5826,-3.5919,-3.592,-3.592]},{"header":{"parameterUnit":"m.s-1","parameterCategory":1,"la1":30.2991,"la2":30.254,"lo1":-89.0895,"lo2":-89.0444,"dy":0.0017,"dx":0.0017,"nx":28,"ny":28,"refTime":"2023-09-04T21:00:00:Z","depth":0,"parameterNumber":3,"parameterNumberName":"V-component_of_WINDS"},"data":[0,0,0,0,0,0,0,0,0,0,0,0,0,0,0,0,0,0,0,0,0,0,0,0,0,0,0,0,0,0,0,0,0,0,0,0,0,0,0,0,0,0,0,0,0,0,0,0,0,0,0,0,0,0,0,0,0,0,2.159,2.159,0,2.1605,2.1605,2.1605,2.1575,2.1574,2.1573,2.1572,2.1586,2.1587,2.1588,0,0,0,0,0,0,0,0,0,0,0,0,0,2.1532,2.1534,2.159,2.159,2.159,2.1605,2.1605,2.1605,2.1575,2.1574,2.1573,2.1571,2.1585,2.1587,2.1588,0,0,0,0,0,0,0,0,0,0,0,0,0,2.1553,2.1534,2.159,2.1577,2.1576,2.1605,2.1605,2.1605,2.1575,2.1574,2.1572,2.1571,2.1585,2.1586,2.1588,2.163,0,0,2.1594,2.1595,0,0,0,0,0,0,0,0,2.1552,2.1556,2.1578,2.1578,2.1577,2.1586,2.159,2.1614,2.1576,2.1575,2.1572,2.157,2.1587,2.1589,2.1595,2.1631,2.1632,2.1595,2.1596,2.1597,2.1597,0,0,0,0,0,0,0,2.1551,2.1555,2.1596,2.1579,2.1578,2.157,2.1571,2.1594,2.1589,2.1575,2.1573,2.1575,2.1586,2.1593,2.1595,2.1632,2.1594,2.1596,2.1597,2.1598,2.1703,2.1704,0,0,0,0,0,0,2.1551,2.1554,2.1595,2.1596,2.1561,2.1572,2.1573,2.1585,2.1589,2.1588,2.1577,2.1574,2.159,2.1593,2.1595,2.1644,2.1597,2.1598,2.1599,2.1701,2.1703,2.1705,0,0,0,0,0,0,2.155,2.1555,2.1595,2.1574,2.1579,2.1574,2.1588,2.1586,2.1593,2.159,2.1589,2.1585,2.1589,2.1592,2.1622,2.1644,2.1599,2.1601,2.1699,2.1702,2.1704,2.1742,0,0,0,0,0,0,2.1549,2.1555,2.1571,2.1575,2.158,2.1621,2.1589,2.1587,2.1596,2.1593,2.1597,2.1596,2.1588,2.1619,2.1624,2.1646,2.1602,2.1697,2.17,2.1703,2.1738,2.1745,2.1751,0,0,0,0,0,2.1547,2.1581,2.1572,2.1577,2.16,2.1623,2.1626,2.1616,2.1598,2.1614,2.1612,2.1596,2.1641,2.1622,2.1627,2.165,2.1696,2.1699,2.1703,2.1736,2.1744,2.1751,0,0,0,0,0,0,2.1579,2.1581,2.1571,2.1608,2.1616,2.1618,2.1637,2.1625,2.1637,2.1633,2.1621,2.1622,2.1654,2.1655,2.1634,2.1691,2.1665,2.167,2.1688,2.1696,2.1702,2.17,2.1604,0,0,0,0,0,2.159,2.1609,2.161,2.1642,2.1646,2.1642,2.1651,2.1643,2.165,2.1653,2.1653,2.166,2.1676,2.1686,2.1701,2.1739,2.1739,2.1757,2.1764,2.1769,2.1772,2.1792,2.18,2.1717,2.1717,2.1717,0,0,2.1614,2.1617,2.163,2.1649,2.1653,2.1673,2.1644,2.1666,2.1679,2.1656,2.1683,2.1685,2.1691,2.1726,2.1741,2.1728,2.1796,2.1773,2.1777,2.1778,2.1797,2.1805,2.1812,2.1719,2.1719,2.1718,0,0,2.1666,2.1671,2.1698,2.1704,2.1712,2.1709,2.1716,2.172,2.172,2.1748,2.173,2.1747,2.1774,2.1779,2.1786,2.1842,2.1827,2.1847,2.1878,2.1898,2.1904,2.191,2.1929,2.1936,2.1851,2.1851,2.1851,0,2.1694,2.1722,2.1713,2.1736,2.1745,2.1726,2.1752,2.1759,2.1771,2.1777,2.1763,2.1797,2.18,2.1835,2.1848,2.1855,2.1861,2.1845,2.1904,2.191,2.1915,2.1933,2.194,2.1853,2.1853,2.1853,2.1853,0,2.1756,2.1776,2.1797,2.181,2.1821,2.1846,2.184,2.1852,2.1844,2.1842,2.187,2.1874,2.1889,2.1897,2.1889,2.193,2.1922,2.1907,2.188,2.1925,2.1942,2.1949,2.1856,2.1856,2.1855,2.1854,0,0,2.1827,2.1836,2.1843,2.1849,2.1857,2.1872,2.1896,2.1911,2.1921,2.1931,2.195,2.1974,2.196,2.1967,2.196,2.1977,2.202,2.1959,2.1959,2.1969,2.2065,2.2075,2.2084,2.2011,2.2012,2.2013,2.2064,0,2.1877,2.1919,2.1912,2.1952,2.197,2.1953,2.1974,2.1981,2.198,2.1995,2.1994,2.2011,2.1992,2.1996,2.2012,2.2011,2.2039,2.2008,2.2027,2.2028,2.2024,2.2092,2.2103,2.2151,2.207,2.2072,2.2072,0,2.1942,2.1954,2.1997,2.2002,2.201,2.2028,2.2041,2.2056,2.2064,2.2062,2.2071,2.2061,2.2084,2.2059,2.209,2.207,2.2078,2.2078,2.208,2.208,2.2052,2.2093,2.2166,2.2172,2.2083,2.2082,2.2081,0,2.1988,2.2016,2.2044,2.205,2.2057,2.2071,2.2074,2.2081,2.209,2.2102,2.2108,2.2122,2.2129,2.214,2.2134,2.2116,2.2166,2.2141,2.2164,2.2164,2.2174,2.2173,2.2248,2.2182,2.2182,2.2182,2.2181,0,2.2044,2.207,2.2065,2.2082,2.2111,2.2103,2.2131,2.2133,2.2139,2.2156,2.2143,2.2159,2.215,2.2165,2.216,2.2186,2.219,2.2189,2.2187,2.2189,2.2189,2.2192,2.2188,2.2183,2.2183,2.2183,2.2182,0,2.21,2.2097,2.2127,2.2132,2.2134,2.2155,2.2159,2.2175,2.2174,2.2196,2.22,2.2198,2.2215,2.2211,2.2229,2.2226,2.2259,2.2254,2.2256,2.2254,2.2277,2.2275,2.2356,2.2366,2.2295,2.2296,2.2296,0,2.2135,2.2155,2.2162,2.2173,2.2178,2.2196,2.2206,2.2199,2.221,2.222,2.2235,2.2251,2.2264,2.2293,2.2292,2.2306,2.23,2.2328,2.2302,2.2304,2.2299,2.2297,2.2299,2.2332,2.2333,2.2334,2.2334,0,2.2198,2.2196,2.2211,2.2226,2.2238,2.2249,2.2259,2.2269,2.2263,2.2276,2.2294,2.2304,2.2323,2.2339,2.2352,2.2355,2.2344,2.2343,2.2349,2.235,2.235,2.2349,2.2268,2.234,2.234,2.2339,2.2339,2.2339,2.2243,2.226,2.2268,2.2285,2.2292,2.2302,2.2317,2.2318,2.2334,2.2349,2.2345,2.2365,2.2372,2.2389,2.2394,2.2409,2.2398,2.2407,2.2409,2.2411,2.2413,2.235,2.2412,2.2412,2.2411,2.2411,2.2411,0,2.2304,2.2308,2.2325,2.2339,2.2353,2.2342,2.2353,2.2364,2.2383,2.2391,2.2404,2.2425,2.2441,2.2442,2.2457,2.2469,2.2464,2.2473,2.2471,2.2471,2.2423,2.2416,2.2477,2.2476,2.2476,2.2476,2.2476,2.2476,2.2337,2.2364,2.2363,2.2394,2.2398,2.2419,2.2426,2.2434,2.2441,2.2465,2.2478,2.2479,2.2485,2.25,2.2514,2.2514,2.2519,2.253,2.2528,2.2482,2.2475,2.2469,2.2462,2.2531,2.2532,2.2575,2.2575,2.2575]}]]